Date,TemperatureHighF,TemperatureAvgF,TemperatureLowF,DewpointHighF,DewpointAvgF,DewpointLowF,HumidityHigh,HumidityAvg,HumidityLow,PressureMaxIn,PressureMinIn,WindSpeedMaxMPH,WindSpeedAvgMPH,GustSpeedMaxMPH,PrecipitationSumIn
2013-1-1,44.1,31.8,26.4,33.5,26.7,21.4,96,83,50,29.74,29.62,4,0,4,0.00
2013-1-2,45.9,29.5,22.8,26.2,21.2,18.2,87,72,42,29.62,29.47,3,0,3,0.00
2013-1-3,43.5,28.5,21.9,33.5,20.6,17.3,86,73,46,29.56,29.41,4,0,4,0.00
2013-1-4,55.8,44.4,37.6,44.5,39.2,33.5,95,83,56,29.62,29.47,4,0,4,0.00
2013-1-5,38.5,36.6,34.0,37.4,35.0,33.1,97,94,89,29.50,29.44,7,0,7,0.04
2013-1-6,48.7,42.4,37.4,45.7,38.8,35.1,98,88,65,29.53,29.41,6,0,6,0.04
2013-1-7,51.8,47.9,43.3,50.0,45.0,39.2,95,89,83,29.53,29.35,6,1,6,0.16
2013-1-8,54.1,50.4,46.8,47.5,44.8,42.7,96,82,66,29.53,29.23,8,1,8,0.04
2013-1-9,49.5,41.8,33.8,43.5,36.9,30.9,93,83,64,29.29,29.03,10,1,10,0.35
2013-1-10,39.9,36.3,33.8,37.2,34.4,31.1,96,93,83,29.41,29.29,4,0,4,0.16
2013-1-11,42.8,32.2,26.6,38.4,28.5,21.7,98,87,59,29.59,29.41,4,0,4,0.00
2013-1-12,41.4,29.0,22.8,28.9,23.5,17.9,92,80,54,29.68,29.59,4,0,4,0.00
2013-1-13,29.5,27.2,25.3,25.6,22.8,20.1,93,83,68,29.77,29.68,4,0,4,0.00
2013-1-14,36.7,31.2,27.0,29.6,24.9,22.2,88,78,61,29.85,29.77,6,0,6,0.00
2013-1-15,40.5,35.4,32.9,37.2,31.9,27.6,93,87,79,29.94,29.83,4,0,4,0.00
2013-1-16,36.1,33.7,32.0,34.4,32.1,30.7,97,94,90,29.91,29.77,4,0,4,0.00
2013-1-17,35.1,32.1,30.6,34.5,31.3,29.8,98,97,94,29.77,29.62,2,0,2,0.00
2013-1-18,33.6,30.8,28.2,32.9,30.3,27.7,98,98,97,29.62,29.56,3,0,3,0.00
2013-1-19,32.2,28.9,23.4,31.7,28.4,22.9,98,98,98,29.62,29.56,4,0,4,0.00
2013-1-20,31.1,27.7,24.4,30.6,27.2,24.0,98,98,98,29.65,29.53,4,0,4,0.00
2013-1-21,30.9,27.3,23.7,30.4,26.9,23.2,98,98,98,29.56,29.44,5,0,5,0.00
2013-1-22,33.6,28.0,22.5,32.4,27.3,22.0,98,97,95,29.44,29.23,4,0,4,0.00
2013-1-23,35.6,33.4,30.9,34.9,32.8,30.4,98,98,96,29.50,29.18,4,0,4,0.28
2013-1-24,46.2,36.8,31.5,45.7,36.3,31.0,98,98,98,29.50,29.41,5,0,5,0.28
2013-1-25,51.1,46.6,39.6,50.5,46.1,39.0,98,98,98,29.44,29.26,4,0,4,0.35
2013-1-26,45.9,40.6,36.3,41.4,37.4,32.5,98,88,68,29.41,29.26,8,0,8,0.35
2013-1-27,43.7,39.2,37.4,40.6,37.2,35.5,97,93,80,29.47,29.38,5,0,5,0.28
2013-1-28,42.6,40.7,37.4,42.1,40.0,36.4,98,97,96,29.53,29.41,6,1,6,0.63
2013-1-29,46.0,43.8,42.3,45.5,43.2,41.5,98,98,97,29.80,29.53,5,0,5,0.35
2013-1-30,48.2,44.8,42.1,46.5,43.8,41.3,98,96,89,29.80,29.74,5,0,5,0.28
2013-1-31,56.7,47.7,43.5,50.1,42.5,35.3,98,84,49,29.77,29.65,6,0,6,0.28